This demonstration page uses our WeatherBlox Daily Observations layout. Learn more.

Left ArrowRight Arrow

39.92423, -83.80882

Hourly Observations for August 21, 2020

Temp ( °F °C ) Dew Point ( °F °C ) Humidity (%) Winds ( mph kmh ) Pressure ( in mb ) Visibility ( mi km ) Precip ( " mm )
12:56 am 00:56 Clear 58 14.4 58 14.4 100 100 N N/A 29.98 1015 10 16 N/A
1:56 am 01:56 Clear 58 14.4 58 14.4 100 100 N N/A 29.97 1015 10 16 N/A
2:56 am 02:56 Clear 58 14.4 58 14.4 100 100 N N/A 29.96 1015 10 16 N/A
3:56 am 03:56 Mostly Cloudy 59 15 59 15 100 100 N 3 6 29.97 1015 10 16 N/A
4:56 am 04:56 Clear 59 15 59 15 100 100 ENE 3 6 29.98 1015 10 16 N/A
5:56 am 05:56 Mostly Cloudy 59 15 59 15 100 100 N 3 6 29.98 1015 10 16 N/A
6:56 am 06:56 Sunny 58 14.4 58 14.4 100 100 E 3 6 29.99 1016 10 16 N/A
7:56 am 07:56 Sunny 59 15 58 14.4 96 96 N N/A 30.01 1016 10 16 N/A
8:56 am 08:56 Sunny 63 17.2 61 16.1 93 93 N N/A 30.01 1016 10 16 N/A
9:56 am 09:56 Sunny 71 21.7 62 16.7 73 73 E 5 7 30.00 1016 10 16 N/A
10:56 am 10:56 Sunny 75 23.9 61 16.1 62 62 E 7 11 30.00 1016 10 16 N/A
11:56 am 11:56 Sunny 76 24.4 60 15.6 58 58 E 7 11 30.00 1016 10 16 N/A
12:56 pm 12:56 Sunny 79 26.1 60 15.6 52 52 ENE 8 13 29.98 1015 10 16 N/A
1:56 pm 13:56 Sunny 79 26.1 63 17.2 58 58 VRB 5 7 29.98 1015 10 16 N/A
2:56 pm 14:56 Sunny 79 26.1 64 17.8 60 60 SSE 6 9 29.96 1015 10 16 N/A
3:56 pm 15:56 Sunny 80 26.7 64 17.8 58 58 NNE 3 6 29.95 1014 10 16 N/A
4:56 pm 16:56 Sunny 80 26.7 66 18.9 62 62 E 5 7 29.94 1014 10 16 N/A
5:56 pm 17:56 Sunny 79 26.1 65 18.3 62 62 N N/A 29.93 1014 10 16 N/A
6:56 pm 18:56 Sunny 79 26.1 67 19.4 67 67 N N/A 29.93 1014 10 16 N/A
7:56 pm 19:56 Sunny 76 24.4 67 19.4 74 74 WNW 3 6 29.94 1014 10 16 N/A
8:56 pm 20:56 Clear 70 21.1 70 21.1 100 100 N N/A 29.95 1014 10 16 N/A
9:56 pm 21:56 Clear 67 19.4 67 19.4 100 100 N N/A 29.96 1015 10 16 N/A
10:56 pm 22:56 Clear 67 19.4 67 19.4 100 100 N N/A 29.96 1014 10 16 N/A
11:56 pm 23:56 Clear 65 18.3 65 18.3 100 100 N N/A 29.96 1015 10 16 N/A

Powered by AerisWeather